Time,TemperatureF,DewpointF,PressureIn,WindDirection,WindDirectionDegrees,WindSpeedMPH,WindSpeedGustMPH,Humidity,HourlyPrecipIn,Conditions,Clouds,dailyrainin,SolarRadiationWatts/m^2,SoftwareType,DateUTC
2013-11-30 00:02:00,21.0,10.0,-100.00,North,356,5.0,10.0,63,0.00,,,0.01,0.000000,,2013-11-30 05:02:00,
2013-11-30 00:10:00,21.0,11.0,-100.00,North,350,7.0,10.0,64,0.00,,,0.01,0.000000,,2013-11-30 05:10:00,
2013-11-30 00:43:00,21.0,11.0,-100.00,North,350,7.0,10.0,64,0.00,,,0.01,0.000000,,2013-11-30 05:43:00,
2013-11-30 00:53:00,21.0,11.0,-100.00,North,350,7.0,10.0,64,0.00,,,0.01,0.000000,,2013-11-30 05:53:00,
2013-11-30 01:02:00,21.0,11.0,-100.00,North,350,7.0,10.0,64,0.00,,,0.01,0.000000,,2013-11-30 06:02:00,
2013-11-30 01:10:00,19.0,8.0,-100.00,NNE,25,5.0,11.0,61,0.00,,,0.01,0.000000,,2013-11-30 06:10:00,
2013-11-30 01:42:00,19.0,8.0,-100.00,NNE,25,5.0,11.0,61,0.00,,,0.01,0.000000,,2013-11-30 06:42:00,
2013-11-30 01:52:00,19.0,8.0,-100.00,NNE,25,5.0,11.0,61,0.00,,,0.01,0.000000,,2013-11-30 06:52:00,
2013-11-30 02:02:00,19.0,8.0,-100.00,NNE,25,5.0,11.0,61,0.00,,,0.01,0.000000,,2013-11-30 07:02:00,
2013-11-30 02:10:00,20.0,10.0,-100.00,NNW,337,7.0,11.0,64,0.00,,,0.01,0.000000,,2013-11-30 07:10:00,
2013-11-30 02:42:00,20.0,10.0,-100.00,NNW,337,7.0,11.0,64,0.00,,,0.01,0.000000,,2013-11-30 07:42:00,
2013-11-30 02:52:00,20.0,10.0,-100.00,NNW,337,7.0,11.0,64,0.00,,,0.01,0.000000,,2013-11-30 07:52:00,
2013-11-30 03:02:00,20.0,10.0,-100.00,NNW,337,7.0,11.0,64,0.00,,,0.01,0.000000,,2013-11-30 08:02:00,
2013-11-30 03:10:00,19.0,9.0,-100.00,NNW,348,7.0,12.0,63,0.00,,,0.01,0.000000,,2013-11-30 08:10:00,
2013-11-30 03:42:00,19.0,9.0,-100.00,NNW,348,7.0,12.0,63,0.00,,,0.01,0.000000,,2013-11-30 08:42:00,
2013-11-30 03:52:00,19.0,9.0,-100.00,NNW,348,7.0,12.0,63,0.00,,,0.01,0.000000,,2013-11-30 08:52:00,
2013-11-30 04:02:00,19.0,9.0,-100.00,NNW,348,7.0,12.0,63,0.00,,,0.01,0.000000,,2013-11-30 09:02:00,
2013-11-30 04:10:00,18.0,9.0,-100.00,NNE,29,5.0,10.0,68,0.00,,,-99.99,0.000000,,2013-11-30 09:10:00,
2013-11-30 04:43:00,18.0,9.0,-100.00,NNE,29,5.0,10.0,68,0.00,,,-99.99,0.000000,,2013-11-30 09:43:00,
2013-11-30 04:54:00,18.0,9.0,-100.00,NNE,29,5.0,10.0,68,0.00,,,-99.99,0.000000,,2013-11-30 09:54:00,
2013-11-30 05:03:00,18.0,9.0,-100.00,NNE,29,5.0,10.0,68,0.00,,,-99.99,0.000000,,2013-11-30 10:03:00,
2013-11-30 05:10:00,17.0,8.0,-100.00,NNE,20,5.0,9.0,68,0.00,,,0.01,0.000000,,2013-11-30 10:10:00,
2013-11-30 05:42:00,17.0,8.0,-100.00,NNE,20,5.0,9.0,68,0.00,,,0.01,0.000000,,2013-11-30 10:42:00,
2013-11-30 05:53:00,17.0,8.0,-100.00,NNE,20,5.0,9.0,68,0.00,,,0.01,0.000000,,2013-11-30 10:53:00,
2013-11-30 06:02:00,17.0,8.0,-100.00,NNE,20,5.0,9.0,68,0.00,,,0.01,0.000000,,2013-11-30 11:02:00,
2013-11-30 06:10:00,18.0,8.0,-100.00,NE,54,6.0,11.0,65,0.00,,,0.01,0.000000,,2013-11-30 11:10:00,
2013-11-30 06:42:00,18.0,8.0,-100.00,NE,54,6.0,11.0,65,0.00,,,0.01,0.000000,,2013-11-30 11:42:00,
2013-11-30 06:53:00,18.0,8.0,-100.00,NE,54,6.0,11.0,65,0.00,,,0.01,0.000000,,2013-11-30 11:53:00,
2013-11-30 07:02:00,18.0,8.0,-100.00,NE,54,6.0,11.0,65,0.00,,,0.01,0.000000,,2013-11-30 12:02:00,
2013-11-30 07:10:00,17.0,7.0,-100.00,ENE,62,5.0,12.0,64,0.00,,,0.01,2.000000,,2013-11-30 12:10:00,
2013-11-30 07:42:00,17.0,7.0,-100.00,ENE,62,5.0,12.0,64,0.00,,,0.01,2.000000,,2013-11-30 12:42:00,
2013-11-30 07:52:00,17.0,7.0,-100.00,ENE,62,5.0,12.0,64,0.00,,,0.01,2.000000,,2013-11-30 12:52:00,
2013-11-30 08:02:00,17.0,7.0,-100.00,ENE,62,5.0,12.0,64,0.00,,,0.01,2.000000,,2013-11-30 13:02:00,
2013-11-30 08:10:00,21.0,10.0,-100.00,ENE,72,7.0,11.0,62,0.00,,,-99.99,55.000000,,2013-11-30 13:10:00,
2013-11-30 08:42:00,21.0,10.0,-100.00,ENE,72,7.0,11.0,62,0.00,,,-99.99,55.000000,,2013-11-30 13:42:00,
2013-11-30 08:52:00,21.0,10.0,-100.00,ENE,72,7.0,11.0,62,0.00,,,-99.99,55.000000,,2013-11-30 13:52:00,
2013-11-30 09:02:00,21.0,10.0,-100.00,ENE,72,7.0,11.0,62,0.00,,,-99.99,55.000000,,2013-11-30 14:02:00,
2013-11-30 09:10:00,24.0,10.0,-100.00,ENE,73,7.0,12.0,54,0.00,,,0.01,197.000000,,2013-11-30 14:10:00,
2013-11-30 09:42:00,24.0,10.0,-100.00,ENE,73,7.0,12.0,54,0.00,,,0.01,197.000000,,2013-11-30 14:42:00,
2013-11-30 09:53:00,24.0,10.0,-100.00,ENE,73,7.0,12.0,54,0.00,,,0.01,197.000000,,2013-11-30 14:53:00,
2013-11-30 10:02:00,24.0,10.0,-100.00,ENE,73,7.0,12.0,54,0.00,,,0.01,197.000000,,2013-11-30 15:02:00,
2013-11-30 10:10:00,27.0,10.0,-100.00,East,97,7.0,11.0,49,0.00,,,0.01,362.000000,,2013-11-30 15:10:00,
2013-11-30 10:43:00,27.0,10.0,-100.00,East,97,7.0,11.0,49,0.00,,,0.01,362.000000,,2013-11-30 15:43:00,
2013-11-30 10:54:00,27.0,10.0,-100.00,East,97,7.0,11.0,49,0.00,,,0.01,362.000000,,2013-11-30 15:54:00,
2013-11-30 11:03:00,27.0,10.0,-100.00,East,97,7.0,11.0,49,0.00,,,0.01,362.000000,,2013-11-30 16:03:00,
2013-11-30 11:10:00,28.0,11.0,-100.00,East,96,8.0,12.0,48,0.00,,,0.01,384.000000,,2013-11-30 16:10:00,
2013-11-30 11:43:00,28.0,11.0,-100.00,East,96,8.0,12.0,48,0.00,,,0.01,384.000000,,2013-11-30 16:43:00,
2013-11-30 11:53:00,28.0,11.0,-100.00,East,96,8.0,12.0,48,0.00,,,0.01,384.000000,,2013-11-30 16:53:00,
2013-11-30 12:02:00,28.0,11.0,-100.00,East,96,8.0,12.0,48,0.00,,,0.01,384.000000,,2013-11-30 17:02:00,
2013-11-30 12:10:00,30.0,14.0,-100.00,SE,124,6.0,12.0,51,0.00,,,0.00,448.000000,,2013-11-30 17:10:00,
2013-11-30 12:42:00,30.0,14.0,-100.00,SE,124,6.0,12.0,51,0.00,,,0.00,448.000000,,2013-11-30 17:42:00,
2013-11-30 12:53:00,30.0,14.0,-100.00,SE,124,6.0,12.0,51,0.00,,,0.00,448.000000,,2013-11-30 17:53:00,
2013-11-30 13:02:00,30.0,14.0,-100.00,SE,124,6.0,12.0,51,0.00,,,0.00,448.000000,,2013-11-30 18:02:00,
2013-11-30 13:10:00,31.0,17.0,-100.00,ESE,118,5.0,12.0,55,0.00,,,0.00,322.000000,,2013-11-30 18:10:00,
2013-11-30 13:42:00,31.0,17.0,-100.00,ESE,118,5.0,12.0,55,0.00,,,0.00,322.000000,,2013-11-30 18:42:00,
2013-11-30 13:52:00,31.0,17.0,-100.00,ESE,118,5.0,12.0,55,0.00,,,0.00,322.000000,,2013-11-30 18:52:00,
2013-11-30 14:02:00,31.0,17.0,-100.00,ESE,118,5.0,12.0,55,0.00,,,0.00,322.000000,,2013-11-30 19:02:00,
2013-11-30 14:10:00,31.0,17.0,-100.00,ESE,118,8.0,11.0,55,0.00,,,0.00,272.000000,,2013-11-30 19:10:00,
2013-11-30 14:42:00,31.0,17.0,-100.00,ESE,118,8.0,11.0,55,0.00,,,0.00,272.000000,,2013-11-30 19:42:00,
2013-11-30 14:52:00,31.0,17.0,-100.00,ESE,118,8.0,11.0,55,0.00,,,0.00,272.000000,,2013-11-30 19:52:00,
2013-11-30 15:02:00,31.0,17.0,-100.00,ESE,118,8.0,11.0,55,0.00,,,0.00,272.000000,,2013-11-30 20:02:00,
2013-11-30 15:10:00,32.0,19.0,-100.00,SE,124,6.0,13.0,59,0.00,,,0.00,203.000000,,2013-11-30 20:10:00,
2013-11-30 15:42:00,32.0,19.0,-100.00,SE,124,6.0,13.0,59,0.00,,,0.00,203.000000,,2013-11-30 20:42:00,
2013-11-30 15:52:00,32.0,19.0,-100.00,SE,124,6.0,13.0,59,0.00,,,0.00,203.000000,,2013-11-30 20:52:00,
2013-11-30 16:02:00,32.0,19.0,-100.00,SE,124,6.0,13.0,59,0.00,,,0.00,203.000000,,2013-11-30 21:02:00,
2013-11-30 16:10:00,29.0,20.0,-100.00,SE,126,5.0,12.0,68,0.00,,,0.00,94.000000,,2013-11-30 21:10:00,
2013-11-30 16:43:00,29.0,20.0,-100.00,SE,126,5.0,12.0,68,0.00,,,0.00,94.000000,,2013-11-30 21:43:00,
2013-11-30 16:53:00,29.0,20.0,-100.00,SE,126,5.0,12.0,68,0.00,,,0.00,94.000000,,2013-11-30 21:53:00,
2013-11-30 17:04:00,29.0,20.0,-100.00,SE,126,5.0,12.0,68,0.00,,,0.00,94.000000,,2013-11-30 22:04:00,
2013-11-30 17:10:00,28.0,21.0,-100.00,ESE,120,5.0,10.0,74,0.00,,,0.00,5.000000,,2013-11-30 22:10:00,
2013-11-30 17:42:00,28.0,21.0,-100.00,ESE,120,5.0,10.0,74,0.00,,,0.00,5.000000,,2013-11-30 22:42:00,
2013-11-30 17:52:00,28.0,21.0,-100.00,ESE,120,5.0,10.0,74,0.00,,,0.00,5.000000,,2013-11-30 22:52:00,
2013-11-30 18:02:00,28.0,21.0,-100.00,ESE,120,5.0,10.0,74,0.00,,,0.00,5.000000,,2013-11-30 23:02:00,
2013-11-30 18:10:00,28.0,22.0,-100.00,ESE,105,5.0,9.0,79,0.00,,,0.00,0.000000,,2013-11-30 23:10:00,
2013-11-30 18:42:00,28.0,22.0,-100.00,ESE,105,5.0,9.0,79,0.00,,,0.00,0.000000,,2013-11-30 23:42:00,
2013-11-30 18:53:00,28.0,22.0,-100.00,ESE,105,5.0,9.0,79,0.00,,,0.00,0.000000,,2013-11-30 23:53:00,
2013-11-30 19:02:00,28.0,22.0,-100.00,ESE,105,5.0,9.0,79,0.00,,,0.00,0.000000,,2013-12-01 00:02:00,
2013-11-30 19:10:00,29.0,25.0,-100.00,ESE,106,6.0,8.0,83,0.00,,,0.00,0.000000,,2013-12-01 00:10:00,
2013-11-30 19:42:00,29.0,25.0,-100.00,ESE,106,6.0,8.0,83,0.00,,,0.00,0.000000,,2013-12-01 00:42:00,
2013-11-30 19:52:00,29.0,25.0,-100.00,ESE,106,6.0,8.0,83,0.00,,,0.00,0.000000,,2013-12-01 00:52:00,
2013-11-30 20:02:00,29.0,25.0,-100.00,ESE,106,6.0,8.0,83,0.00,,,0.00,0.000000,,2013-12-01 01:02:00,
2013-11-30 20:10:00,29.0,25.0,-100.00,East,99,5.0,10.0,85,0.00,,,0.00,0.000000,,2013-12-01 01:10:00,
2013-11-30 20:42:00,29.0,25.0,-100.00,East,99,5.0,10.0,85,0.00,,,0.00,0.000000,,2013-12-01 01:42:00,
2013-11-30 20:52:00,29.0,25.0,-100.00,East,99,5.0,10.0,85,0.00,,,0.00,0.000000,,2013-12-01 01:52:00,
2013-11-30 21:01:00,29.0,25.0,-100.00,East,99,5.0,10.0,85,0.00,,,0.00,0.000000,,2013-12-01 02:01:00,
2013-11-30 21:10:00,30.0,26.0,-100.00,ESE,112,4.0,9.0,85,0.00,,,0.00,0.000000,,2013-12-01 02:10:00,
2013-11-30 21:42:00,30.0,26.0,-100.00,ESE,112,4.0,9.0,85,0.00,,,0.00,0.000000,,2013-12-01 02:42:00,
2013-11-30 21:52:00,30.0,26.0,-100.00,ESE,112,4.0,9.0,85,0.00,,,0.00,0.000000,,2013-12-01 02:52:00,
2013-11-30 22:02:00,30.0,26.0,-100.00,ESE,112,4.0,9.0,85,0.00,,,0.00,0.000000,,2013-12-01 03:02:00,
2013-11-30 22:10:00,30.0,26.0,-100.00,ESE,105,4.0,6.0,85,0.00,,,0.00,0.000000,,2013-12-01 03:10:00,
2013-11-30 22:44:00,30.0,26.0,-100.00,ESE,105,4.0,6.0,85,0.00,,,0.00,0.000000,,2013-12-01 03:44:00,
2013-11-30 22:54:00,30.0,26.0,-100.00,ESE,105,4.0,6.0,85,0.00,,,0.00,0.000000,,2013-12-01 03:54:00,
2013-11-30 23:03:00,-999.0,-99.9,-100.00,ESE,105,4.0,6.0,-999,0.00,,,0.00,0.000000,,2013-12-01 04:03:00,
2013-11-30 23:10:00,29.0,25.0,-100.00,East,96,2.0,5.0,86,0.00,,,0.00,0.000000,,2013-12-01 04:10:00,
2013-11-30 23:42:00,29.0,25.0,-100.00,East,96,2.0,5.0,86,0.00,,,0.00,0.000000,,2013-12-01 04:42:00,
2013-11-30 23:53:00,29.0,25.0,-100.00,East,96,2.0,5.0,86,0.00,,,0.00,0.000000,,2013-12-01 04:53:00,